This is the latest recevied weather packets stored in our database for station/object KQ7A. If no packets are shown the sender has not sent any weather packets the latest 10 day(s).
| Time | Temp. | Humidity | Pressure | Rain* | Wind** | Luminosity | Snow |
|---|---|---|---|---|---|---|---|
| 1787956005 | 16.67° C | 86% | 1023.3 hPa | 0 mm | - | 235 W/m² | - |
| 1787955701 | 17.22° C | 87% | 1023 hPa | 0 mm | - | 198 W/m² | - |
| 1787955397 | 16.67° C | 86% | 1023.3 hPa | 0 mm | - | 279 W/m² | - |
| 1787955095 | 16.67° C | 86% | 1023 hPa | 0 mm | - | 335 W/m² | - |
| 1787954791 | 16.67° C | 85% | 1023.4 hPa | 0 mm | - | 298 W/m² | - |
| 1787954487 | 16.67° C | 84% | 1023.7 hPa | 0 mm | - | 276 W/m² | - |
| 1787954186 | 16.11° C | 85% | 1023.4 hPa | 0 mm | - | 246 W/m² | - |
| 1787953880 | 15.56° C | 86% | 1023.4 hPa | 1.78 mm | - | 179 W/m² | - |
| 1787953580 | 16.11° C | 89% | 1023.5 hPa | 0 mm | - | 203 W/m² | - |
| 1787953274 | 16.11° C | 89% | 1023.9 hPa | 0 mm | - | 179 W/m² | - |
| 1787952972 | 16.11° C | 88% | 1023.9 hPa | 0 mm | - | 131 W/m² | - |
| 1787952675 | 16.11° C | 86% | 1023.9 hPa | 0 mm | - | 123 W/m² | - |
| 1787952366 | 16.11° C | 86% | 1024.1 hPa | 1.27 mm | - | 177 W/m² | - |
| 1787952063 | 16.67° C | 85% | 1024.1 hPa | 1.27 mm | - | 152 W/m² | - |
| 1787951762 | 16.11° C | 84% | 1024.1 hPa | 1.27 mm | - | 150 W/m² | - |
| 1787951458 | 16.11° C | 83% | 1024.2 hPa | 0 mm | - | 189 W/m² | - |
| 1787951154 | 16.67° C | 83% | 1023.8 hPa | 0 mm | - | 243 W/m² | - |
| 1787950849 | 17.22° C | 82% | 1024.1 hPa | 1.78 mm | - | 290 W/m² | - |
| 1787950544 | 16.67° C | 82% | 1024.1 hPa | 1.78 mm | - | 262 W/m² | - |
| 1787950241 | 16.67° C | 84% | 1024.2 hPa | 1.78 mm | - | 345 W/m² | - |
| 1787949940 | 16.67° C | 82% | 1024.3 hPa | 0 mm | - | 311 W/m² | - |
| 1787949637 | 16.11° C | 85% | 1024.3 hPa | 0 mm | - | 293 W/m² | - |
| 1787949332 | 16.11° C | 85% | 1024.2 hPa | 0 mm | - | 330 W/m² | - |
| 1787949026 | 16.11° C | 86% | 1024.3 hPa | 1.78 mm | - | 321 W/m² | - |
| 1787948722 | 16.67° C | 86% | 1024.8 hPa | 1.78 mm | - | 297 W/m² | - |
* Rain latest hour (hover to see other rain measurements)
** Current wind speed in m/s (hover to see current wind gust speed)